Starlink 2731

operational
NORAD ID: 48651 Int'l Des: 2021-044 Owner: SPXS Country: US Constellation: starlink
LEOCIRCULARSTARLINK_TYPE

About Starlink 2731

Description loading...

Live Position

Loading 3D Globe...

Upcoming Passes

Altitude History

Altitude vs Time

uPlot chart will show altitude changes over time

Two-Line Element Set

1 48651U 21044P 25304.31051082 .00013627 00000-0 93178-3 0 9999
2 48651 53.0546 342.4220 0001468 98.0882 262.0273 15.06407261244206
Epoch: Oct 31, 2025 • Age: 4 hours

Current Status

Altitude 552.7 km
Velocity 7.59 km/s
Sub-Earth Point 53.21°N, 133.95°W
Launch Date May 26, 2021
Age 4.4 years
Type internet

Technical Details

Classification Payload
Mass 260.00 kg
Dry Mass 248.00 kg
Total Mass 260.00 kg
Length 0.20 m
Diameter 2.80 m
Span 9.00 m
Shape Box + pan
Manufacturer SPXS
Bus Type Starlink
Phase Status In Orbit
Owner/State SPXS/US

Large Constellations

Loading constellations...